MUCC

Jardines del Rey Airport

Airport
ICAO code
MUCC
IATA Code
CCC
Summary
ICAO Region
CARSAM
ICAO Territory
Location

Cayo Coco, Ciego de Avila

Serving
Cayo Coco
Elevation
13 ft
Coordinates
22° 27' 42" N , 78° 19' 38" W
KCC
Airport BS
Bird Strike
Metar
MUCC 040950Z 13003KT 9000 FEW020 23/22 Q1016

International airport serving the islands of Cayo Coco and Cayo Guillermo, Cuba.

Climatology

Tropical Savanna climate (Köppen climate classification Aw)

Runways

Designator Length Width Surface Rops
8/26 3000 45 ASP Yes/Yes

Airport map

Aerial View

SKYbrary Partners:

Safety knowledge contributed by: